Weather History for Cincinnati, OH

Change the Weather History Date:

Saturday, March 16, 2013

  Actual Average Record
Temperature  
Mean Temperature 50 °F -  
Max Temperature 63 °F 53 °F 79 °F (1982)
Min Temperature 37 °F 33 °F 19 °F (1969)
Degree Days  
Heating Degree Days 16    
Moisture  
Dew Point 41 °F    
Average Humidity 88    
Maximum Humidity 100    
Minimum Humidity 58    
Precipitation  
Precipitation 0.15 in - - ()
Sea Level Pressure  
Sea Level Pressure 29.76 in    
Wind  
Wind Speed 5 mph (NNW)    
Max Wind Speed 17 mph    
Max Gust Speed 25 mph    
Visibility 5 miles    
Events Fog , Rain , Thunderstorm    
Averages and records for this station are not official NWS values.
T = Trace of Precipitation, MM = Missing Value Source: NWS Daily Summary

Daily Weather History Graph

Daily Weather History Graph

Search for Another Location

Airport:

Trip Planner

Search our weather history database for the weather conditions in past years. The results will help you decide how hot, cold, wet, or windy it might be!

Date:

Astronomy

Mar. 16, 2013 Rise Set
Actual Time 7:47 AM EDT 7:45 PM EDT
Civil Twilight 7:20 AM EDT 8:12 PM EDT
Nautical Twilight 6:49 AM EDT 8:43 PM EDT
Astronomical Twilight 6:17 AM EDT 9:15 PM EDT
Moon 10:18 AM EDT (3/16) No Moon Set
Length of Visible Light 12h 52m
Length of Day
11h 58m
Waxing Crescent, 23% of the Moon is Illuminated
Mar 16
Waxing Crescent
Mar 19
First Quarter
Mar 27
Full
Apr 3
Last Quarter
Apr 10
New

Hourly Weather History & Observations

Time (EDT) Temp. Windchill Dew Point Humidity Pressure Visibility Wind Dir Wind Speed Gust Speed Precip Events Conditions
12:53 AM 44.1 °F 40.1 °F 39.9 °F 85% 29.81 in 10.0 mi ENE 6.9 mph - 0.00 in Rain Light Rain
1:46 AM 44.6 °F 40.2 °F 42.8 °F 93% 29.78 in 2.5 mi NNW 8.1 mph - 0.08 in Rain Heavy Rain
1:53 AM 45.0 °F 42.6 °F 42.1 °F 90% 29.76 in 4.0 mi Variable 4.6 mph - 0.11 in Rain Light Rain
2:53 AM 46.0 °F - 44.1 °F 93% 29.74 in 10.0 mi Calm Calm - 0.03 in   Mostly Cloudy
3:53 AM 41.0 °F - 41.0 °F 100% 29.71 in 5.0 mi Calm Calm - N/A   Clear
4:07 AM 41.0 °F - 41.0 °F 100% 29.70 in 1.8 mi Calm Calm - N/A   Clear
4:17 AM 39.2 °F - 39.2 °F 100% 29.69 in 0.5 mi Calm Calm - N/A Fog Fog
4:29 AM 39.2 °F - 39.2 °F 100% 29.69 in 0.2 mi Calm Calm - N/A Fog Fog
4:44 AM 39.2 °F - 39.2 °F 100% 29.68 in 0.2 mi Calm Calm - N/A Fog Fog
4:50 AM 39.2 °F - 39.2 °F 100% 29.68 in 0.5 mi Calm Calm - N/A Fog Fog
4:53 AM 39.9 °F 37.8 °F 39.9 °F 100% 29.68 in 0.5 mi WSW 3.5 mph - N/A Fog Fog
5:00 AM 39.2 °F - 39.2 °F 100% 29.68 in 0.5 mi Calm Calm - N/A Fog Fog
5:19 AM 39.2 °F - 39.2 °F 100% 29.68 in 1.2 mi Calm Calm - N/A   Partly Cloudy
5:53 AM 39.0 °F - 39.0 °F 100% 29.68 in 1.0 mi Calm Calm - N/A   Clear
6:09 AM 37.4 °F - 37.4 °F 100% 29.67 in 0.5 mi Calm Calm - N/A Fog Fog
6:12 AM 37.4 °F - 37.4 °F 100% 29.67 in 0.2 mi Calm Calm - N/A Fog Fog
6:30 AM 41.0 °F 39.0 °F 41.0 °F 100% 29.67 in 1.0 mi West 3.5 mph - N/A   Partly Cloudy
6:33 AM 41.0 °F 39.0 °F 41.0 °F 100% 29.67 in 4.0 mi WSW 3.5 mph - N/A   Partly Cloudy
6:53 AM 41.0 °F 39.0 °F 41.0 °F 100% 29.67 in 9.0 mi SW 3.5 mph - N/A   Partly Cloudy
7:27 AM 42.8 °F 40.1 °F 42.8 °F 100% 29.68 in 8.0 mi West 4.6 mph - N/A Thunderstorm Thunderstorm
7:53 AM 42.1 °F - 42.1 °F 100% 29.70 in 6.0 mi Calm Calm - 0.00 in Rain Light Rain
8:53 AM 43.0 °F - 43.0 °F 100% 29.64 in 7.0 mi Calm Calm - 0.01 in Rain Rain
9:53 AM 46.0 °F - 45.0 °F 96% 29.65 in 5.0 mi Calm Calm - 0.00 in   Overcast
10:53 AM 48.9 °F - 46.9 °F 93% 29.65 in 8.0 mi Calm Calm - 0.00 in   Scattered Clouds
11:53 AM 62.1 °F - 51.1 °F 67% 29.69 in 10.0 mi West 16.1 mph 25.3 mph 0.00 in   Scattered Clouds
12:53 PM 62.1 °F - 50.0 °F 65% 29.72 in 10.0 mi West 15.0 mph 20.7 mph N/A   Partly Cloudy
1:53 PM 61.0 °F - 46.9 °F 60% 29.76 in 10.0 mi NW 11.5 mph 19.6 mph N/A   Mostly Cloudy
2:53 PM 61.0 °F - 46.0 °F 58% 29.79 in 10.0 mi North 11.5 mph 23.0 mph N/A   Mostly Cloudy
3:53 PM 55.9 °F - 43.0 °F 62% 29.82 in 8.0 mi NNW 17.3 mph 21.9 mph N/A   Partly Cloudy
4:53 PM 53.1 °F - 41.0 °F 64% 29.86 in 7.0 mi NW 16.1 mph - N/A   Overcast
5:26 PM 50.0 °F - 41.0 °F 71% 29.88 in 7.0 mi North 16.1 mph - N/A   Overcast
5:53 PM 48.9 °F - 39.9 °F 71% 29.90 in 6.0 mi North 12.7 mph 21.9 mph N/A   Haze
6:53 PM 46.0 °F 39.3 °F 39.0 °F 76% 29.95 in 6.0 mi North 16.1 mph - N/A   Haze
7:53 PM 43.0 °F 36.4 °F 37.0 °F 80% 29.96 in 8.0 mi North 12.7 mph - N/A   Overcast
8:53 PM 42.1 °F 35.7 °F 35.1 °F 76% 29.97 in 8.0 mi NNE 11.5 mph - N/A   Overcast
9:53 PM 39.9 °F 34.5 °F 33.1 °F 77% 30.02 in 10.0 mi North 8.1 mph - N/A   Overcast
10:53 PM 39.0 °F 34.0 °F 33.1 °F 79% 30.04 in 9.0 mi North 6.9 mph - N/A   Overcast
11:53 PM 39.0 °F 34.0 °F 32.0 °F 76% 30.05 in 9.0 mi NNE 6.9 mph - N/A   Overcast